Details for Aegean Airlines at LCLK




Go Back


Latest METAR
Local Time

LCLK 180600Z 12003KT 060V170 9999 FEW025 29/20 Q1006 NOSIG
18/08/2018, 09:28:55

Description
Results
Aegean Airlines Logo
Number of Pilots based at LCLK
0 Pilots Based here
Number of Aegean Airlines Flights Departed from LCLK
1 Flights Departed
Number of Aegean Airlines Flights Arrived at LCLK
1 Flights Arrived
Number of Aegean Airlines Schedules Departing from LCLK
5 Schedules
Number of Aegean Airlines Schedules Arriving at LCLK
7 Schedules
Number of Aegean Airlines Schedules Departing from LCLK availible today
2 Schedules Today
Number of Aegean Airlines Schedules Arriving at LCLK availible today
3 Schedules Today
Average Landing Rate at LCLK
-248 fpm
Aegean Airlines Average Landing Rate at LCLK
-235 fpm
Total Fuel Purchased at LCLK by Aegean Airlines
5,558.32 kgs / 12,253.87 lbs

Pilots Based at LCLK


Pilot ID
Pilot Name
Pilot Rank
No. of Flights
No. of Flying Hours
There are no pilots assigned to this hub!   Will you be the first?
Content